Wind_Speed
30 30 30 32 35 37 39 39 39 39 40 43 44 43 41 41 43 43 44 44 44 43 42 42 42 42 42 42 41 40 39 39 38 37 36 35 35 35 35 34 34 34 33 33
30 31 30 32 33 35 38 40 41 41 42 44 45 45 43 42 42 43 44 44 44 43 43 43 44 44 43 43 43 42 42 41 40 39 38 37 37 37 36 35 35 35 35 34
29 30 31 32 33 35 37 39 41 42 42 43 45 46 44 43 43 43 44 44 44 44 44 44 44 45 45 45 45 44 43 43 42 42 41 40 39 38 37 37 37 37 37 36
30 30 32 32 33 35 36 37 39 41 43 44 44 46 43 43 43 43 42 42 43 43 44 44 45 46 46 46 46 46 45 44 44 43 43 42 41 40 39 39 39 39 39 38
29 31 33 33 33 35 36 36 38 40 42 43 42 45 43 43 42 42 42 41 41 42 43 44 45 46 46 46 47 47 46 46 45 45 44 43 42 42 42 42 41 41 40 40
30 31 33 34 35 35 36 36 38 39 41 43 40 43 42 41 41 41 42 42 41 42 43 43 45 45 46 46 47 47 47 47 47 46 46 45 44 44 44 44 43 43 42 42
31 32 33 34 35 35 35 36 38 40 41 43 40 41 40 37 39 40 41 42 43 43 43 43 44 45 45 46 46 47 48 48 48 47 47 46 46 46 46 46 45 45 44 44
31 32 33 33 33 34 35 35 37 40 42 42 41 42 39 38 38 38 40 41 42 43 44 45 45 45 45 47 47 48 49 49 49 48 48 47 47 47 47 48 48 47 46 45
31 32 32 32 32 34 36 36 36 38 41 42 42 42 39 38 38 38 38 40 41 43 44 45 45 45 45 46 47 48 49 49 50 49 49 49 48 49 48 48 48 48 48 47
32 33 32 32 33 34 35 36 37 39 41 43 42 40 38 37 37 37 37 38 39 41 42 44 45 46 46 47 48 48 49 49 50 50 50 50 50 50 50 49 48 49 49 49
34 34 33 33 33 33 35 37 38 39 41 43 43 40 37 36 37 36 37 38 39 40 41 43 44 45 46 47 48 50 50 50 51 51 51 51 52 51 51 51 50 50 51 51
34 35 35 34 33 33 35 36 37 39 40 42 45 43 38 37 37 37 37 38 40 41 41 42 43 45 46 47 48 49 50 50 51 51 51 51 51 53 52 52 52 52 52 52
35 36 36 35 35 35 36 36 38 39 42 42 44 44 39 38 37 37 38 38 39 40 41 42 42 44 45 46 48 49 50 51 51 51 51 53 52 52 53 52 52 53 53 53
35 36 37 37 36 36 37 37 38 40 42 44 44 43 39 39 38 39 39 39 39 39 40 41 43 44 45 47 48 50 50 51 51 52 53 53 53 53 52 53 53 53 53 53
36 37 37 38 37 37 37 38 39 40 41 44 43 43 40 40 41 41 41 42 42 42 42 42 43 45 46 46 48 49 50 51 52 52 52 53 53 53 53 52 51 52 53 53
37 37 38 38 37 39 40 38 37 38 40 43 44 43 40 42 43 43 42 43 43 42 42 42 43 45 46 46 46 48 49 50 51 52 52 53 54 54 54 53 51 51 51 52
38 38 39 39 37 40 40 35 36 36 36 39 42 41 40 42 43 43 43 43 43 42 42 42 42 42 44 45 46 47 47 48 50 52 53 53 53 53 53 53 52 51 50 50
37 38 40 39 39 41 36 35 36 38 37 37 39 39 39 41 42 42 42 43 43 43 42 42 43 43 43 43 44 46 47 48 49 50 52 53 53 53 52 52 53 52 50 50
36 37 39 40 41 42 37 35 36 38 38 37 38 39 39 39 41 40 41 42 42 42 42 42 43 43 44 44 43 44 45 47 48 49 50 51 52 53 53 52 53 53 53 51
35 37 39 39 41 42 37 36 37 39 38 36 37 38 39 40 40 39 40 41 41 42 42 41 42 42 43 44 45 45 45 46 47 48 49 50 51 52 52 52 53 53 53 52
35 36 37 38 40 41 37 37 37 39 37 37 37 38 37 38 39 39 39 40 41 41 41 41 42 42 42 43 44 45 45 46 46 46 47 48 50 50 51 51 52 52 52 52
37 37 37 38 41 39 37 38 38 38 38 37 36 36 37 37 38 39 39 39 40 40 41 42 42 42 42 42 43 44 44 45 45 46 46 47 48 49 50 51 51 51 50 51
38 37 39 40 40 38 37 38 38 38 39 38 37 37 37 37 37 38 39 39 39 40 40 41 41 41 42 43 43 44 44 44 44 44 45 46 47 47 48 49 49 48 48 48
39 39 40 41 38 37 38 38 38 39 39 38 38 38 38 38 37 38 38 38 38 38 39 40 40 41 41 42 42 42 43 43 44 43 44 45 45 46 46 46 46 46 46 46
38 39 40 40 38 40 40 39 39 39 39 39 38 38 38 38 37 38 37 37 37 37 38 39 39 39 39 39 40 40 41 42 43 43 43 44 45 45 44 44 45 45 45 45
35 37 39 38 37 40 39 39 39 39 38 39 39 39 38 38 37 37 37 36 36 36 37 38 38 38 38 38 38 38 39 40 40 41 42 42 43 43 42 42 43 43 43 43
Wind_Direction
255 252 253 253 251 251 250 252 253 253 253 253 252 250 247 248 249 248 247 247 247 245 243 244 244 244 244 244 243 243 244 245 246 248 250 251 251 252 253 255 256 257 259 261
258 256 255 255 255 254 254 255 255 256 256 255 254 252 249 248 250 250 249 249 248 247 245 244 245 245 244 244 243 244 245 246 247 249 251 252 251 252 253 254 257 258 260 261
261 259 256 255 255 256 257 258 258 259 257 258 258 254 250 250 250 250 250 250 250 249 247 246 246 245 244 243 243 244 245 246 248 250 251 252 253 253 254 255 256 258 260 261
261 259 257 257 258 259 260 259 259 261 261 261 260 258 250 249 249 251 251 251 250 250 248 247 247 245 244 243 242 243 245 247 248 250 251 252 253 253 254 254 256 258 260 262
263 260 258 258 260 262 262 259 259 261 263 262 261 261 255 250 250 251 251 252 252 251 249 247 246 245 244 243 243 243 245 247 248 249 250 252 252 252 253 255 256 258 260 262
264 263 261 260 260 263 262 261 261 262 263 262 262 264 259 253 253 252 251 253 254 252 249 247 246 245 244 243 243 244 244 246 247 248 250 251 252 252 253 255 256 258 260 261
264 263 262 262 262 262 262 262 264 264 264 264 264 264 260 256 255 255 254 254 254 253 250 249 248 246 245 244 243 244 245 246 247 249 250 251 252 252 254 255 256 257 259 261
267 264 263 264 264 263 261 260 263 267 268 267 264 263 261 259 257 256 256 257 256 254 252 250 249 248 246 245 244 245 246 246 248 249 250 251 251 252 253 254 256 257 258 260
270 267 264 264 264 262 261 259 261 267 269 270 266 263 262 262 261 259 258 258 257 255 253 251 250 248 247 246 246 246 246 247 248 249 250 251 251 252 253 254 255 257 259 259
272 270 267 266 265 263 262 262 262 263 268 271 270 268 267 265 264 262 260 259 257 256 255 253 252 251 249 248 247 247 247 248 249 249 250 251 252 252 253 253 255 256 258 258
272 272 270 268 266 266 264 262 263 264 266 268 271 269 268 269 267 266 263 261 259 258 256 254 252 251 250 250 250 249 249 249 249 249 249 250 251 252 253 254 254 255 257 258
273 273 271 270 269 268 267 266 265 266 266 267 268 268 269 270 270 269 267 263 261 260 258 257 255 252 251 251 251 251 251 250 250 250 250 250 251 252 253 254 255 255 256 258
273 273 273 271 271 270 269 268 266 266 266 266 267 270 270 270 270 268 266 264 261 260 259 259 258 255 253 253 253 253 253 252 252 252 251 250 250 251 252 253 254 255 257 258
274 275 274 274 273 273 271 270 267 265 266 266 267 269 269 269 270 268 266 264 262 262 261 260 258 257 255 254 254 254 254 253 253 253 252 252 252 252 253 253 254 254 256 257
275 276 276 275 274 272 272 271 268 267 268 269 269 268 269 269 269 268 266 265 264 263 262 261 259 258 257 256 255 254 254 253 253 252 253 252 253 253 254 254 255 255 256 257
275 277 277 276 275 273 272 272 272 271 270 270 270 270 270 269 268 267 266 266 266 264 263 262 261 258 258 257 256 255 254 253 252 252 252 252 253 254 254 254 255 256 257 258
277 278 278 277 276 274 273 275 273 273 273 272 272 272 270 269 269 268 266 266 266 266 264 263 262 260 258 257 256 254 253 254 254 253 252 253 254 255 255 255 256 257 258 258
279 279 278 278 276 275 279 277 275 274 273 275 274 272 270 269 268 268 267 266 265 265 263 263 263 262 260 259 258 257 255 254 254 254 254 254 255 255 255 256 256 257 258 259
278 278 278 277 278 278 279 281 279 277 275 276 276 273 270 269 269 269 268 267 266 266 264 263 263 262 261 260 259 259 258 259 258 257 257 257 257 257 257 257 257 257 259 259
278 276 276 278 279 281 283 283 281 280 278 276 276 274 272 271 270 270 269 268 267 267 266 265 263 263 262 260 259 259 260 261 260 259 258 258 259 259 258 258 258 258 258 258
279 278 277 278 279 281 283 283 281 280 280 277 276 274 272 272 271 271 269 268 268 268 267 266 265 264 263 261 261 261 261 261 260 259 258 258 259 259 258 257 257 258 258 259
280 281 279 278 278 282 282 281 280 279 276 276 276 274 273 272 272 270 269 269 269 268 267 267 266 265 264 263 262 262 262 262 261 260 259 259 260 259 258 257 257 257 258 260
280 281 280 278 278 280 280 279 278 278 275 274 274 274 273 273 273 272 270 269 269 269 268 267 267 266 265 265 264 263 263 263 262 260 260 260 260 260 259 259 258 257 257 259
280 280 278 278 278 278 277 277 277 276 275 274 273 274 273 274 275 273 272 270 269 270 269 269 267 266 266 266 265 264 263 262 262 261 261 260 260 260 261 260 259 258 258 259
281 280 280 279 279 276 274 275 276 277 275 274 273 273 273 273 274 274 274 273 271 271 269 268 268 267 267 266 265 265 263 262 262 262 262 261 261 261 261 260 259 258 257 258
281 280 280 280 278 276 276 275 277 277 276 274 273 272 274 274 273 274 274 274 272 272 270 268 266 267 267 267 266 264 262 261 261 261 262 262 262 261 260 259 258 257 257 257
Height
5709 5711 5712 5714 5714 5716 5718 5718 5720 5723 5724 5723 5725 5727 5731 5732 5733 5736 5739 5741 5744 5748 5751 5753 5755 5757 5760 5762 5765 5769 5771 5774 5776 5778 5780 5782 5783 5784 5785 5786 5787 5787 5788 5788
5703 5705 5706 5705 5706 5707 5708 5709 5711 5713 5714 5713 5714 5717 5721 5723 5725 5727 5729 5731 5734 5737 5740 5743 5745 5747 5750 5753 5756 5759 5762 5765 5767 5770 5771 5773 5774 5775 5777 5778 5779 5779 5780 5780
5696 5699 5697 5697 5698 5699 5700 5701 5702 5703 5704 5704 5704 5706 5711 5714 5715 5717 5719 5721 5724 5727 5730 5732 5734 5736 5739 5743 5746 5749 5753 5755 5758 5760 5761 5764 5765 5767 5768 5770 5770 5771 5771 5772
5689 5690 5690 5690 5691 5691 5692 5694 5693 5694 5694 5694 5695 5694 5702 5704 5706 5708 5711 5712 5714 5717 5719 5721 5723 5726 5729 5732 5736 5739 5742 5745 5748 5750 5752 5754 5756 5758 5760 5760 5761 5762 5762 5763
5681 5682 5682 5683 5684 5683 5684 5684 5685 5684 5684 5684 5686 5684 5691 5695 5697 5700 5702 5703 5704 5706 5707 5709 5712 5715 5718 5721 5725 5728 5732 5735 5738 5740 5742 5744 5746 5748 5749 5750 5752 5752 5753 5753
5674 5674 5675 5676 5676 5676 5675 5676 5676 5675 5674 5675 5678 5676 5679 5685 5688 5690 5692 5693 5693 5695 5696 5698 5701 5704 5707 5710 5714 5717 5720 5724 5727 5730 5732 5735 5737 5738 5739 5740 5742 5742 5743 5744
5667 5667 5667 5667 5668 5668 5668 5668 5666 5665 5664 5665 5668 5666 5671 5676 5677 5679 5681 5682 5683 5684 5686 5688 5690 5693 5696 5699 5703 5706 5709 5713 5716 5718 5721 5724 5726 5727 5729 5730 5731 5732 5733 5734
5659 5660 5659 5659 5659 5659 5659 5659 5659 5657 5656 5656 5656 5656 5663 5665 5666 5668 5670 5671 5671 5672 5675 5677 5680 5682 5685 5688 5691 5695 5698 5701 5704 5707 5710 5712 5714 5715 5718 5719 5720 5721 5722 5723
5650 5651 5652 5651 5650 5650 5650 5650 5650 5648 5645 5645 5645 5649 5653 5655 5656 5658 5659 5659 5660 5661 5663 5666 5668 5671 5674 5677 5680 5683 5686 5689 5692 5695 5698 5700 5702 5704 5706 5707 5708 5709 5711 5711
5642 5642 5643 5643 5642 5641 5642 5641 5641 5639 5636 5635 5636 5639 5643 5644 5645 5647 5648 5648 5649 5650 5652 5654 5657 5659 5662 5665 5668 5670 5673 5677 5680 5682 5685 5687 5689 5691 5693 5694 5696 5698 5699 5699
5633 5633 5634 5634 5633 5633 5633 5633 5631 5630 5629 5627 5626 5632 5634 5634 5634 5636 5636 5636 5637 5638 5640 5642 5645 5648 5650 5653 5656 5658 5661 5663 5666 5669 5671 5674 5676 5678 5680 5681 5683 5685 5686 5687
5625 5624 5623 5624 5624 5623 5623 5623 5622 5621 5620 5618 5616 5622 5624 5624 5623 5624 5624 5624 5625 5626 5628 5630 5633 5635 5638 5640 5643 5645 5648 5650 5652 5655 5657 5660 5662 5664 5666 5668 5670 5671 5673 5674
5616 5615 5614 5614 5616 5614 5613 5613 5612 5610 5608 5607 5605 5611 5613 5613 5612 5612 5612 5612 5613 5614 5616 5618 5620 5622 5625 5627 5630 5632 5634 5637 5639 5641 5643 5645 5648 5650 5652 5654 5656 5658 5659 5661
5606 5605 5605 5605 5604 5602 5602 5602 5601 5598 5596 5595 5596 5599 5603 5601 5600 5600 5600 5600 5601 5603 5604 5605 5607 5609 5611 5613 5616 5618 5621 5623 5625 5627 5629 5631 5633 5636 5638 5640 5642 5643 5645 5647
5595 5595 5594 5593 5593 5591 5590 5590 5589 5587 5586 5584 5586 5587 5591 5590 5588 5587 5588 5588 5589 5590 5592 5593 5594 5596 5598 5600 5602 5604 5606 5608 5610 5613 5615 5617 5619 5621 5623 5626 5628 5630 5631 5633
5586 5585 5584 5582 5582 5579 5578 5579 5578 5577 5576 5574 5573 5575 5579 5576 5575 5574 5575 5576 5577 5578 5579 5580 5581 5583 5584 5586 5588 5590 5592 5594 5596 5598 5601 5603 5605 5607 5609 5612 5613 5616 5617 5619
5576 5574 5572 5571 5571 5566 5566 5571 5568 5566 5565 5564 5561 5565 5564 5562 5563 5562 5563 5564 5564 5565 5566 5567 5568 5569 5571 5572 5574 5576 5578 5580 5582 5584 5586 5588 5590 5593 5595 5597 5600 5602 5603 5605
5566 5564 5560 5559 5558 5554 5561 5559 5557 5555 5555 5553 5551 5551 5551 5550 5550 5550 5550 5551 5551 5552 5553 5555 5556 5557 5558 5559 5560 5562 5564 5566 5568 5570 5572 5574 5576 5578 5580 5583 5585 5588 5589 5591
5556 5553 5550 5548 5545 5543 5549 5549 5546 5543 5543 5543 5540 5539 5539 5538 5538 5539 5539 5538 5539 5540 5541 5542 5543 5544 5545 5546 5547 5549 5551 5552 5554 5556 5557 5559 5561 5563 5566 5568 5571 5573 5575 5577
5545 5542 5541 5538 5534 5533 5539 5537 5533 5531 5531 5532 5528 5527 5527 5527 5527 5529 5527 5527 5527 5527 5528 5529 5530 5531 5532 5534 5535 5536 5538 5539 5540 5542 5543 5545 5547 5549 5551 5554 5556 5558 5560 5562
5534 5531 5529 5527 5522 5522 5528 5525 5521 5520 5521 5518 5516 5515 5515 5515 5515 5516 5515 5515 5515 5516 5516 5517 5518 5519 5520 5521 5522 5523 5525 5526 5527 5528 5530 5531 5533 5535 5537 5539 5541 5543 5545 5548
5522 5520 5519 5516 5512 5515 5516 5512 5510 5509 5507 5506 5505 5504 5504 5503 5503 5503 5503 5503 5503 5503 5504 5504 5505 5506 5507 5508 5509 5510 5512 5512 5513 5515 5516 5518 5519 5521 5522 5524 5526 5528 5531 5533
5512 5511 5508 5506 5506 5506 5503 5500 5499 5497 5496 5495 5494 5494 5493 5492 5491 5491 5491 5491 5491 5491 5492 5492 5492 5493 5494 5495 5495 5497 5498 5499 5500 5501 5502 5504 5505 5507 5508 5510 5511 5513 5516 5518
5500 5499 5495 5493 5494 5494 5491 5488 5487 5486 5484 5483 5483 5482 5481 5480 5480 5480 5480 5480 5480 5480 5479 5479 5480 5480 5481 5482 5482 5483 5484 5485 5486 5488 5489 5490 5492 5493 5494 5495 5497 5499 5502 5504
5490 5486 5483 5481 5483 5480 5479 5477 5475 5474 5473 5472 5471 5470 5469 5469 5468 5468 5468 5468 5468 5468 5467 5467 5468 5468 5469 5469 5469 5470 5471 5472 5473 5474 5475 5477 5478 5479 5481 5482 5484 5486 5488 5490
5479 5475 5472 5470 5470 5466 5467 5466 5464 5462 5461 5460 5459 5459 5458 5457 5457 5457 5456 5456 5456 5456 5455 5455 5456 5456 5456 5457 5457 5458 5458 5459 5460 5461 5462 5463 5465 5466 5467 5469 5471 5472 5475 5477